Time,TemperatureF,DewpointF,PressureIn,WindDirection,WindDirectionDegrees,WindSpeedMPH,WindSpeedGustMPH,Humidity,HourlyPrecipIn,Conditions,Clouds,dailyrainin,SoftwareType,DateUTC
2013-05-05 00:01:00,47.0,26.0,-100.00,SW,230,1.0,2.0,43,0.00,,,-99.99,,2013-05-05 06:01:00,
2013-05-05 00:12:00,47.0,26.0,-100.00,SW,225,1.0,2.0,44,0.00,,,-99.99,,2013-05-05 06:12:00,
2013-05-05 00:21:00,47.0,26.0,-100.00,SW,235,3.0,7.0,43,0.00,,,-99.99,,2013-05-05 06:21:00,
2013-05-05 00:32:00,47.0,26.0,-100.00,SW,235,4.0,5.0,42,0.00,,,-99.99,,2013-05-05 06:32:00,
2013-05-05 00:42:00,47.0,26.0,-100.00,WSW,245,3.0,6.0,42,0.00,,,-99.99,,2013-05-05 06:42:00,
2013-05-05 00:51:00,46.0,25.0,-100.00,SSW,200,3.0,6.0,42,0.00,,,-99.99,,2013-05-05 06:51:00,
2013-05-05 01:01:00,46.0,25.0,-100.00,South,170,1.0,5.0,43,0.00,,,-99.99,,2013-05-05 07:01:00,
2013-05-05 01:11:00,45.0,26.0,-100.00,ESE,105,2.0,4.0,46,0.00,,,-99.99,,2013-05-05 07:11:00,
2013-05-05 01:21:00,44.0,26.0,-100.00,ESE,115,3.0,4.0,48,0.00,,,-99.99,,2013-05-05 07:21:00,
2013-05-05 01:32:00,44.0,26.0,-100.00,SSE,160,3.0,6.0,48,0.00,,,-99.99,,2013-05-05 07:32:00,
2013-05-05 01:42:00,44.0,26.0,-100.00,ESE,115,4.0,7.0,49,0.00,,,-99.99,,2013-05-05 07:42:00,
2013-05-05 01:52:00,43.0,26.0,-100.00,SE,125,3.0,6.0,50,0.00,,,-99.99,,2013-05-05 07:52:00,
2013-05-05 02:02:00,43.0,26.0,-100.00,SE,130,4.0,5.0,51,0.00,,,-99.99,,2013-05-05 08:02:00,
2013-05-05 02:11:00,43.0,26.0,-100.00,ESE,110,4.0,6.0,51,0.00,,,-99.99,,2013-05-05 08:11:00,
2013-05-05 02:21:00,42.0,26.0,-100.00,SE,135,4.0,6.0,52,0.00,,,-99.99,,2013-05-05 08:21:00,
2013-05-05 02:31:00,42.0,26.0,-100.00,SE,140,3.0,5.0,52,0.00,,,-99.99,,2013-05-05 08:31:00,
2013-05-05 02:42:00,42.0,26.0,-100.00,ESE,120,4.0,7.0,53,0.00,,,-99.99,,2013-05-05 08:42:00,
2013-05-05 02:53:00,42.0,26.0,-100.00,ESE,115,5.0,7.0,53,0.00,,,-99.99,,2013-05-05 08:53:00,
2013-05-05 03:01:00,41.0,26.0,-100.00,ESE,105,4.0,6.0,54,0.00,,,-99.99,,2013-05-05 09:01:00,
2013-05-05 03:11:00,41.0,26.0,-100.00,ESE,110,4.0,6.0,54,0.00,,,-99.99,,2013-05-05 09:11:00,
2013-05-05 03:21:00,41.0,26.0,-100.00,SE,130,3.0,6.0,54,0.00,,,-99.99,,2013-05-05 09:21:00,
2013-05-05 03:32:00,40.0,26.0,-100.00,ESE,105,4.0,7.0,55,0.00,,,-99.99,,2013-05-05 09:32:00,
2013-05-05 03:42:00,40.0,26.0,-100.00,ESE,115,6.0,9.0,55,0.00,,,-99.99,,2013-05-05 09:42:00,
2013-05-05 03:52:00,40.0,26.0,-100.00,ESE,110,6.0,7.0,55,0.00,,,-99.99,,2013-05-05 09:52:00,
2013-05-05 04:02:00,40.0,26.0,-100.00,ESE,115,4.0,9.0,57,0.00,,,-99.99,,2013-05-05 10:02:00,
2013-05-05 04:12:00,39.0,26.0,-100.00,ESE,115,6.0,7.0,57,0.00,,,-99.99,,2013-05-05 10:12:00,
2013-05-05 04:22:00,40.0,26.0,-100.00,ESE,120,6.0,8.0,57,0.00,,,-99.99,,2013-05-05 10:22:00,
2013-05-05 04:32:00,40.0,26.0,-100.00,ESE,115,6.0,7.0,57,0.00,,,-99.99,,2013-05-05 10:32:00,
2013-05-05 04:42:00,40.0,26.0,-100.00,SE,125,4.0,6.0,56,0.00,,,-99.99,,2013-05-05 10:42:00,
2013-05-05 04:52:00,40.0,26.0,-100.00,ESE,120,6.0,9.0,56,0.00,,,-99.99,,2013-05-05 10:52:00,
2013-05-05 05:01:00,40.0,26.0,-100.00,ESE,115,4.0,9.0,56,0.00,,,-99.99,,2013-05-05 11:01:00,
2013-05-05 05:12:00,40.0,25.0,-100.00,SE,145,4.0,6.0,56,0.00,,,-99.99,,2013-05-05 11:12:00,
2013-05-05 05:21:00,39.0,25.0,-100.00,ESE,120,4.0,7.0,57,0.00,,,-99.99,,2013-05-05 11:21:00,
2013-05-05 05:32:00,39.0,25.0,-100.00,ESE,115,4.0,7.0,58,0.00,,,-99.99,,2013-05-05 11:32:00,
2013-05-05 05:42:00,39.0,25.0,-100.00,ESE,120,4.0,6.0,58,0.00,,,-99.99,,2013-05-05 11:42:00,
2013-05-05 05:51:00,38.0,25.0,-100.00,ESE,105,2.0,6.0,58,0.00,,,-99.99,,2013-05-05 11:51:00,
2013-05-05 06:02:00,38.0,25.0,-100.00,ESE,120,4.0,6.0,58,0.00,,,-99.99,,2013-05-05 12:02:00,
2013-05-05 06:11:00,37.0,25.0,-100.00,ESE,105,4.0,9.0,60,0.00,,,-99.99,,2013-05-05 12:11:00,
2013-05-05 06:21:00,37.0,25.0,-100.00,SE,130,4.0,9.0,60,0.00,,,-99.99,,2013-05-05 12:21:00,
2013-05-05 06:32:00,38.0,25.0,-100.00,SE,130,6.0,10.0,60,0.00,,,-99.99,,2013-05-05 12:32:00,
2013-05-05 06:42:00,38.0,26.0,-100.00,South,175,3.0,8.0,60,0.00,,,-99.99,,2013-05-05 12:42:00,
2013-05-05 06:52:00,38.0,26.0,-100.00,South,190,4.0,6.0,60,0.00,,,-99.99,,2013-05-05 12:52:00,
2013-05-05 07:01:00,39.0,26.0,-100.00,SW,215,4.0,6.0,59,0.00,,,-99.99,,2013-05-05 13:01:00,
2013-05-05 07:11:00,39.0,26.0,-100.00,SW,235,4.0,6.0,60,0.00,,,-99.99,,2013-05-05 13:11:00,
2013-05-05 07:21:00,39.0,26.0,-100.00,SW,225,5.0,7.0,60,0.00,,,-99.99,,2013-05-05 13:21:00,
2013-05-05 07:32:00,38.0,26.0,-100.00,WSW,245,4.0,6.0,61,0.00,,,-99.99,,2013-05-05 13:32:00,
2013-05-05 07:42:00,38.0,27.0,-100.00,SW,220,2.0,5.0,62,0.00,,,-99.99,,2013-05-05 13:42:00,
2013-05-05 07:52:00,39.0,27.0,-100.00,WSW,250,4.0,6.0,62,0.00,,,-99.99,,2013-05-05 13:52:00,
2013-05-05 08:02:00,39.0,27.0,-100.00,WSW,245,3.0,5.0,62,0.00,,,-99.99,,2013-05-05 14:02:00,
2013-05-05 08:11:00,39.0,27.0,-100.00,SW,235,5.0,7.0,61,0.00,,,-99.99,,2013-05-05 14:11:00,
2013-05-05 08:21:00,39.0,27.0,-100.00,SW,220,6.0,8.0,60,0.00,,,-99.99,,2013-05-05 14:21:00,
2013-05-05 08:31:00,39.0,27.0,-100.00,SW,220,5.0,9.0,60,0.00,,,-99.99,,2013-05-05 14:31:00,
2013-05-05 08:42:00,40.0,27.0,-100.00,SSW,200,4.0,7.0,60,0.00,,,-99.99,,2013-05-05 14:42:00,
2013-05-05 08:51:00,41.0,27.0,-100.00,SW,225,6.0,7.0,58,0.00,,,-99.99,,2013-05-05 14:51:00,
2013-05-05 09:02:00,41.0,27.0,-100.00,SSW,205,5.0,7.0,58,0.00,,,-99.99,,2013-05-05 15:02:00,
2013-05-05 09:11:00,42.0,28.0,-100.00,South,175,4.0,7.0,57,0.00,,,-99.99,,2013-05-05 15:11:00,
2013-05-05 09:21:00,43.0,29.0,-100.00,West,275,4.0,6.0,56,0.00,,,-99.99,,2013-05-05 15:21:00,
2013-05-05 09:33:00,44.0,29.0,-100.00,SW,235,4.0,7.0,55,0.00,,,-99.99,,2013-05-05 15:33:00,
2013-05-05 09:43:00,43.0,29.0,-100.00,West,270,6.0,9.0,56,0.00,,,-99.99,,2013-05-05 15:43:00,
2013-05-05 09:53:00,44.0,29.0,-100.00,NNW,330,2.0,7.0,55,0.00,,,-99.99,,2013-05-05 15:53:00,
2013-05-05 10:03:00,46.0,30.0,-100.00,WSW,245,2.0,6.0,53,0.00,,,-99.99,,2013-05-05 16:03:00,
2013-05-05 10:12:00,45.0,29.0,-100.00,West,280,2.0,5.0,53,0.00,,,-99.99,,2013-05-05 16:12:00,
2013-05-05 10:22:00,46.0,30.0,-100.00,WSW,255,3.0,6.0,52,0.00,,,-99.99,,2013-05-05 16:22:00,
2013-05-05 10:32:00,47.0,29.0,-100.00,ENE,65,1.0,4.0,50,0.00,,,-99.99,,2013-05-05 16:32:00,
2013-05-05 10:42:00,45.0,29.0,-100.00,NE,40,2.0,4.0,51,0.00,,,-99.99,,2013-05-05 16:42:00,
2013-05-05 10:52:00,46.0,29.0,-100.00,SSW,195,2.0,3.0,51,0.00,,,-99.99,,2013-05-05 16:52:00,
2013-05-05 11:02:00,45.0,28.0,-100.00,South,190,3.0,6.0,51,0.00,,,-99.99,,2013-05-05 17:02:00,
2013-05-05 11:12:00,46.0,29.0,-100.00,East,100,1.0,6.0,51,0.00,,,-99.99,,2013-05-05 17:12:00,
2013-05-05 11:23:00,46.0,29.0,-100.00,NE,40,1.0,4.0,50,0.00,,,-99.99,,2013-05-05 17:23:00,
2013-05-05 11:32:00,46.0,29.0,-100.00,NE,50,2.0,4.0,50,0.00,,,-99.99,,2013-05-05 17:32:00,
2013-05-05 11:42:00,47.0,29.0,-100.00,WSW,245,3.0,4.0,50,0.00,,,-99.99,,2013-05-05 17:42:00,
2013-05-05 11:52:00,48.0,30.0,-100.00,SW,215,3.0,4.0,49,0.00,,,-99.99,,2013-05-05 17:52:00,
2013-05-05 12:01:00,48.0,30.0,-100.00,NNE,25,0.0,4.0,49,0.00,,,-99.99,,2013-05-05 18:01:00,
2013-05-05 12:12:00,50.0,31.0,-100.00,SW,225,3.0,4.0,48,0.00,,,-99.99,,2013-05-05 18:12:00,
2013-05-05 12:21:00,49.0,30.0,-100.00,SSE,165,3.0,8.0,48,0.00,,,-99.99,,2013-05-05 18:21:00,
2013-05-05 12:32:00,49.0,30.0,-100.00,SW,220,5.0,9.0,48,0.00,,,-99.99,,2013-05-05 18:32:00,
2013-05-05 12:42:00,50.0,31.0,-100.00,SW,235,4.0,7.0,47,0.00,,,-99.99,,2013-05-05 18:42:00,
2013-05-05 12:51:00,50.0,31.0,-100.00,SSW,210,1.0,7.0,47,0.00,,,-99.99,,2013-05-05 18:51:00,
2013-05-05 13:01:00,51.0,31.0,-100.00,West,270,4.0,7.0,46,0.00,,,-99.99,,2013-05-05 19:01:00,
2013-05-05 13:11:00,51.0,31.0,-100.00,SW,215,6.0,9.0,45,0.00,,,-99.99,,2013-05-05 19:11:00,
2013-05-05 13:21:00,52.0,32.0,-100.00,NW,320,1.0,7.0,45,0.00,,,-99.99,,2013-05-05 19:21:00,
2013-05-05 13:32:00,53.0,32.0,-100.00,South,175,4.0,9.0,44,0.00,,,-99.99,,2013-05-05 19:32:00,
2013-05-05 13:42:00,52.0,31.0,-100.00,SW,230,5.0,11.0,44,0.00,,,-99.99,,2013-05-05 19:42:00,
2013-05-05 13:52:00,53.0,31.0,-100.00,SSE,165,6.0,9.0,42,0.00,,,-99.99,,2013-05-05 19:52:00,
2013-05-05 14:01:00,54.0,32.0,-100.00,SSW,200,4.0,9.0,42,0.00,,,-99.99,,2013-05-05 20:01:00,
2013-05-05 14:11:00,54.0,31.0,-100.00,South,190,4.0,8.0,42,0.00,,,-99.99,,2013-05-05 20:11:00,
2013-05-05 14:21:00,54.0,31.0,-100.00,SSW,210,5.0,10.0,42,0.00,,,-99.99,,2013-05-05 20:21:00,
2013-05-05 14:31:00,53.0,31.0,-100.00,NE,40,1.0,7.0,42,0.00,,,-99.99,,2013-05-05 20:31:00,
2013-05-05 14:41:00,54.0,31.0,-100.00,West,260,4.0,7.0,41,0.00,,,-99.99,,2013-05-05 20:41:00,
2013-05-05 14:52:00,54.0,31.0,-100.00,SSW,195,4.0,7.0,42,0.00,,,-99.99,,2013-05-05 20:52:00,
2013-05-05 15:02:00,54.0,31.0,-100.00,WNW,300,5.0,7.0,42,0.00,,,-99.99,,2013-05-05 21:02:00,
2013-05-05 15:11:00,54.0,31.0,-100.00,WNW,300,2.0,6.0,42,0.00,,,-99.99,,2013-05-05 21:11:00,
2013-05-05 15:21:00,53.0,31.0,-100.00,WNW,295,4.0,6.0,42,0.00,,,-99.99,,2013-05-05 21:21:00,
2013-05-05 15:33:00,53.0,30.0,-100.00,WNW,285,4.0,8.0,41,0.00,,,-99.99,,2013-05-05 21:33:00,
2013-05-05 15:42:00,53.0,31.0,-100.00,WNW,295,1.0,4.0,41,0.00,,,-99.99,,2013-05-05 21:42:00,
2013-05-05 15:52:00,54.0,31.0,-100.00,WNW,300,4.0,6.0,41,0.00,,,-99.99,,2013-05-05 21:52:00,
2013-05-05 16:02:00,54.0,31.0,-100.00,NW,315,1.0,4.0,41,0.00,,,-99.99,,2013-05-05 22:02:00,
2013-05-05 16:12:00,54.0,31.0,-100.00,NNW,335,1.0,9.0,41,0.00,,,-99.99,,2013-05-05 22:12:00,
2013-05-05 16:22:00,55.0,31.0,-100.00,SE,140,3.0,6.0,40,0.00,,,-99.99,,2013-05-05 22:22:00,
2013-05-05 16:33:00,55.0,31.0,-100.00,NE,50,4.0,6.0,40,0.00,,,-99.99,,2013-05-05 22:33:00,
2013-05-05 16:42:00,55.0,31.0,-100.00,NNE,15,4.0,6.0,40,0.00,,,-99.99,,2013-05-05 22:42:00,
2013-05-05 16:52:00,55.0,31.0,-100.00,South,180,3.0,6.0,39,0.00,,,-99.99,,2013-05-05 22:52:00,
2013-05-05 17:02:00,56.0,32.0,-100.00,SSE,150,4.0,7.0,39,0.00,,,-99.99,,2013-05-05 23:02:00,
2013-05-05 17:11:00,56.0,32.0,-100.00,ESE,120,6.0,9.0,39,0.00,,,-99.99,,2013-05-05 23:11:00,
2013-05-05 17:21:00,56.0,32.0,-100.00,SSE,150,6.0,11.0,39,0.00,,,-99.99,,2013-05-05 23:21:00,
2013-05-05 17:32:00,56.0,32.0,-100.00,SE,135,7.0,13.0,39,0.00,,,-99.99,,2013-05-05 23:32:00,
2013-05-05 17:42:00,56.0,32.0,-100.00,SSE,150,6.0,9.0,39,0.00,,,-99.99,,2013-05-05 23:42:00,
2013-05-05 17:52:00,56.0,32.0,-100.00,South,170,6.0,9.0,39,0.00,,,-99.99,,2013-05-05 23:52:00,
2013-05-05 18:01:00,56.0,32.0,-100.00,South,170,7.0,11.0,39,0.00,,,-99.99,,2013-05-06 00:01:00,
2013-05-05 18:11:00,55.0,31.0,-100.00,SSE,150,7.0,11.0,39,0.00,,,-99.99,,2013-05-06 00:11:00,
2013-05-05 18:21:00,55.0,31.0,-100.00,South,180,6.0,10.0,39,0.00,,,-99.99,,2013-05-06 00:21:00,
2013-05-05 18:31:00,55.0,31.0,-100.00,South,190,6.0,9.0,39,0.00,,,-99.99,,2013-05-06 00:31:00,
2013-05-05 18:41:00,55.0,31.0,-100.00,South,170,7.0,12.0,39,0.00,,,-99.99,,2013-05-06 00:41:00,
2013-05-05 18:51:00,55.0,31.0,-100.00,SSE,150,7.0,9.0,39,0.00,,,-99.99,,2013-05-06 00:51:00,
2013-05-05 19:01:00,54.0,32.0,-100.00,ESE,115,10.0,16.0,42,0.00,,,-99.99,,2013-05-06 01:01:00,
2013-05-05 19:11:00,53.0,33.0,-100.00,SSE,155,7.0,15.0,45,0.00,,,-99.99,,2013-05-06 01:11:00,
2013-05-05 19:21:00,53.0,33.0,-100.00,East,95,6.0,9.0,47,0.00,,,-99.99,,2013-05-06 01:21:00,
2013-05-05 19:31:00,50.0,36.0,-100.00,SE,130,12.0,19.0,59,0.00,,,-99.99,,2013-05-06 01:31:00,
2013-05-05 19:41:00,49.0,39.0,-100.00,SE,130,11.0,20.0,67,0.00,,,-99.99,,2013-05-06 01:41:00,
2013-05-05 19:52:00,49.0,39.0,-100.00,ESE,120,9.0,16.0,69,0.00,,,-99.99,,2013-05-06 01:52:00,
2013-05-05 20:01:00,49.0,40.0,-100.00,SE,125,7.0,14.0,70,0.00,,,-99.99,,2013-05-06 02:01:00,
2013-05-05 20:12:00,49.0,39.0,-100.00,SE,130,6.0,11.0,68,0.00,,,-99.99,,2013-05-06 02:12:00,
2013-05-05 20:21:00,49.0,39.0,-100.00,SE,135,6.0,11.0,68,0.00,,,-99.99,,2013-05-06 02:21:00,
2013-05-05 20:32:00,49.0,39.0,-100.00,ESE,120,4.0,9.0,69,0.00,,,-99.99,,2013-05-06 02:32:00,
2013-05-05 20:42:00,49.0,39.0,-100.00,SE,125,3.0,7.0,69,0.00,,,-99.99,,2013-05-06 02:42:00,
2013-05-05 20:51:00,48.0,39.0,-100.00,NNW,335,0.0,4.0,69,0.00,,,-99.99,,2013-05-06 02:51:00,
2013-05-05 21:02:00,48.0,39.0,-100.00,SE,125,2.0,3.0,70,0.00,,,-99.99,,2013-05-06 03:02:00,
2013-05-05 21:11:00,48.0,39.0,-100.00,ESE,115,4.0,6.0,70,0.00,,,-99.99,,2013-05-06 03:11:00,
2013-05-05 21:22:00,49.0,39.0,-100.00,ESE,110,3.0,6.0,69,0.00,,,-99.99,,2013-05-06 03:22:00,
2013-05-05 21:33:00,48.0,39.0,-100.00,ESE,105,4.0,7.0,69,0.00,,,-99.99,,2013-05-06 03:33:00,
2013-05-05 21:42:00,48.0,39.0,-100.00,ESE,110,3.0,7.0,69,0.00,,,-99.99,,2013-05-06 03:42:00,
2013-05-05 21:52:00,49.0,39.0,-100.00,ESE,120,3.0,6.0,68,0.00,,,-99.99,,2013-05-06 03:52:00,
2013-05-05 22:02:00,49.0,39.0,-100.00,SE,140,1.0,4.0,68,0.00,,,-99.99,,2013-05-06 04:02:00,
2013-05-05 22:12:00,49.0,38.0,-100.00,SE,125,6.0,7.0,67,0.00,,,-99.99,,2013-05-06 04:12:00,
2013-05-05 22:23:00,48.0,38.0,-100.00,ESE,115,4.0,7.0,68,0.00,,,-99.99,,2013-05-06 04:23:00,
2013-05-05 22:32:00,48.0,38.0,-100.00,SE,130,4.0,7.0,69,0.00,,,-99.99,,2013-05-06 04:32:00,
2013-05-05 22:42:00,48.0,38.0,-100.00,ESE,120,5.0,9.0,70,0.00,,,-99.99,,2013-05-06 04:42:00,
2013-05-05 22:52:00,48.0,38.0,-100.00,ESE,120,4.0,7.0,69,0.00,,,-99.99,,2013-05-06 04:52:00,
2013-05-05 23:02:00,48.0,38.0,-100.00,SE,130,6.0,7.0,69,0.00,,,-99.99,,2013-05-06 05:02:00,
2013-05-05 23:12:00,48.0,38.0,-100.00,ESE,115,6.0,9.0,69,0.00,,,-99.99,,2013-05-06 05:12:00,
2013-05-05 23:22:00,48.0,38.0,-100.00,SE,145,5.0,9.0,68,0.00,,,-99.99,,2013-05-06 05:22:00,
2013-05-05 23:32:00,48.0,38.0,-100.00,SE,125,4.0,7.0,68,0.00,,,-99.99,,2013-05-06 05:32:00,
2013-05-05 23:42:00,48.0,38.0,-100.00,ESE,110,4.0,6.0,68,0.00,,,-99.99,,2013-05-06 05:42:00,
2013-05-05 23:52:00,48.0,38.0,-100.00,ENE,75,2.0,4.0,68,0.00,,,-99.99,,2013-05-06 05:52:00,